Theta_e
304 304 304 304 304 306 306 306 307 308 307 308 308 309 309 310 311 304 301 304 299 293 297 300 300 294 294 289 286 290 290 291 288 283 283 283 282 286 284 288 287 286 285 284 285 283 281 298 297 290 292 295 297 295
303 304 304 304 304 304 305 306 306 307 307 307 307 307 308 310 310 307 299 305 304 295 294 301 302 301 299 297 291 289 289 291 289 285 285 284 283 283 282 277 291 281 287 287 288 288 297 299 296 297 297 295 296 293
303 303 304 304 304 304 304 304 305 306 306 306 306 306 307 308 310 307 300 301 299 293 293 296 296 301 303 300 299 289 290 292 291 291 287 284 281 284 279 281 285 290 296 291 290 294 296 297 298 297 297 296 299 296
302 303 303 304 304 304 304 304 304 305 305 305 305 305 306 307 309 308 301 302 298 293 286 296 304 301 304 303 301 299 296 297 293 290 285 286 286 287 282 284 284 288 290 289 289 293 294 297 298 297 298 300 297 296
302 303 303 304 304 304 304 304 304 304 304 304 305 305 305 307 308 306 306 304 301 294 286 289 296 300 302 303 301 302 299 296 293 286 286 281 284 284 285 285 283 288 287 285 284 293 292 293 297 299 297 298 298 295
302 302 303 303 303 304 304 304 304 304 304 304 305 305 304 306 308 300 295 302 305 300 289 285 296 300 302 302 300 299 297 295 293 290 289 289 290 288 280 280 288 294 297 295 292 297 297 298 298 300 299 296 296 294
302 302 302 303 303 304 304 304 304 304 304 304 304 304 304 306 305 297 295 300 305 302 295 287 289 299 300 297 294 293 294 292 291 288 288 286 286 292 287 281 288 292 294 296 297 298 293 295 293 297 296 296 296 295
302 302 302 303 303 304 303 304 304 304 304 304 304 305 305 306 304 300 302 304 304 295 292 285 286 294 297 291 288 296 290 293 292 290 289 285 286 290 282 288 292 297 298 298 299 299 296 296 297 295 295 294 293 292
301 301 303 303 303 304 303 304 304 304 304 304 304 305 303 301 298 299 305 303 301 295 288 287 284 287 297 296 296 294 295 289 293 285 288 290 288 282 288 290 293 297 295 296 298 295 295 293 294 294 293 293 291 291
301 301 302 303 303 303 304 304 304 304 304 304 302 298 294 299 307 304 298 293 292 293 292 288 290 287 294 291 292 292 292 288 284 286 289 286 283 291 293 295 298 299 299 297 293 289 290 291 292 292 292 293 293 293
301 302 302 303 303 303 304 303 304 303 303 299 296 293 300 305 298 295 289 288 289 285 288 288 288 286 295 289 288 289 288 286 284 286 286 283 280 291 300 298 299 297 296 294 293 293 293 292 292 292 292 294 293 294
301 301 302 303 303 303 303 303 304 300 299 299 298 300 299 294 291 289 287 287 286 284 289 287 288 290 292 292 288 288 286 288 283 292 288 279 291 298 299 297 294 294 294 293 294 296 295 295 294 292 292 293 293 293
300 301 302 303 302 302 303 303 303 304 302 300 294 291 290 289 284 284 282 284 284 288 290 290 288 290 290 291 286 289 285 284 290 288 286 290 295 297 297 295 294 293 293 293 294 294 295 294 295 294 293 295 293 292
300 301 302 302 302 303 304 303 304 303 298 291 287 283 286 284 285 286 286 289 293 295 291 291 289 290 291 285 287 284 288 290 283 281 284 290 294 297 292 292 291 290 292 292 293 294 293 294 294 295 294 292 292 291
300 302 302 301 302 303 303 303 304 301 295 288 288 284 286 290 292 295 297 295 298 299 293 289 289 292 290 287 287 286 284 283 286 285 287 292 292 291 290 291 290 291 291 291 293 295 293 294 294 293 292 292 291 291
301 302 301 302 302 302 303 303 301 299 295 291 289 288 290 290 291 295 293 295 298 293 292 289 285 285 285 286 282 283 281 279 283 290 293 292 289 289 289 291 292 293 292 291 294 296 294 294 293 292 292 292 290 290
300 298 303 302 302 303 303 299 296 293 290 289 287 291 290 290 290 293 294 296 300 293 285 288 284 282 288 285 284 285 283 290 294 292 291 290 289 289 290 293 294 294 293 292 294 294 293 293 292 291 289 290 289 289
297 298 302 302 302 300 298 297 293 291 287 290 288 289 291 292 294 293 293 298 294 295 289 285 289 287 285 284 286 289 294 295 297 293 290 290 290 290 291 291 294 293 292 292 293 292 292 290 289 288 289 289 288 287
298 299 301 303 301 297 292 292 293 286 288 289 289 290 290 291 294 297 296 297 295 297 291 287 285 285 284 290 292 292 293 295 294 292 292 291 291 291 292 292 293 291 291 291 289 288 289 289 289 289 288 287 285 285
300 300 300 302 301 293 289 290 294 289 287 289 291 290 290 290 292 294 295 296 296 294 288 285 285 289 291 294 296 297 297 299 297 291 291 291 292 292 291 289 289 291 290 290 288 289 288 289 289 289 288 287 285 284
298 300 301 300 297 295 292 290 290 290 291 288 290 290 290 292 291 291 291 296 293 291 286 289 290 292 296 298 300 299 299 299 296 293 292 291 293 293 292 292 292 290 288 288 287 288 288 287 288 289 288 287 287 285
297 301 297 298 293 293 290 294 291 293 291 288 288 290 287 287 288 290 294 292 292 293 291 291 293 294 295 298 300 301 300 298 299 295 293 292 290 289 291 291 289 288 288 288 288 288 287 287 288 289 289 288 288 286
299 298 294 294 289 288 288 295 290 289 286 288 289 289 288 288 290 293 288 290 291 294 294 294 295 297 296 299 302 302 300 295 292 291 292 291 291 291 291 291 290 288 287 287 288 288 288 287 288 288 289 288 287 286
299 292 289 288 287 286 291 289 290 288 289 287 286 284 286 288 291 289 288 291 294 297 295 295 296 296 298 298 299 297 295 294 292 291 292 292 291 289 291 290 290 289 288 287 288 289 289 289 288 288 288 288 287 285
287 287 288 285 290 288 287 286 287 287 285 287 286 287 289 291 287 287 288 291 294 296 296 298 297 298 297 298 296 293 293 293 291 290 290 292 291 290 289 289 288 288 289 287 287 287 287 289 289 289 289 287 287 286
283 288 285 288 288 287 287 285 286 287 288 288 288 291 291 289 287 285 287 291 292 297 297 298 298 296 296 295 292 292 292 294 293 290 288 290 292 291 288 286 285 285 287 287 286 286 287 288 289 289 289 289 286 288
282 284 290 292 291 291 289 292 292 289 288 288 288 288 288 285 285 287 291 293 292 297 299 300 299 297 294 292 294 294 294 294 293 291 290 292 292 292 290 286 285 285 287 288 287 286 286 286 287 287 287 287 288 288
287 290 287 289 288 289 289 290 290 289 288 289 291 287 285 285 285 287 289 293 293 294 298 300 299 297 294 294 294 294 294 294 294 293 292 291 291 290 289 289 288 285 287 287 287 287 286 286 286 286 287 286 286 286
286 289 290 288 291 290 290 289 290 290 291 291 287 286 284 286 288 288 291 292 294 295 296 294 293 296 297 298 298 298 296 293 291 289 288 287 287 288 289 289 289 289 288 285 284 286 286 285 284 284 286 286 286 285
287 290 288 290 288 287 288 290 290 291 291 290 288 287 287 288 289 292 292 290 290 292 294 294 293 294 293 293 290 289 289 294 293 291 287 285 284 286 287 288 288 288 287 286 285 285 284 285 284 285 284 283 282 281
292 291 288 289 287 288 290 291 292 291 290 289 289 287 286 287 290 292 291 290 292 292 292 289 288 289 290 291 290 288 285 285 288 289 289 289 289 287 286 287 288 287 285 284 283 282 281 280 280 280 280 279 279 279
289 287 287 286 286 290 291 290 289 288 289 288 287 288 288 287 285 288 291 290 289 288 286 287 286 284 285 284 283 283 282 282 282 284 285 285 284 285 286 288 287 285 283 281 280 279 278 278 277 277 277 277 277 277
289 290 289 288 286 286 289 290 287 286 287 286 287 288 287 286 283 286 291 291 289 288 287 286 286 284 283 282 281 280 280 280 280 280 280 280 280 281 283 284 284 283 281 279 278 277 276 275 274 275 275 276 276 276
Wind_Speed
18 15 15 14 12 10 11 11 11 8 8 9 9 10 10 10 10 4 3 4 3 1 5 4 6 4 3 3 4 3 4 5 4 3 2 3 2 3 2 2 5 5 4 3 2 3 6 3 2 3 6 3 6 5
19 18 16 14 13 10 9 9 10 10 6 7 9 10 11 10 9 4 2 3 0 3 5 2 5 4 3 6 6 2 5 2 2 4 2 1 2 3 2 2 2 1 6 3 5 3 5 9 7 2 3 4 4 4
19 20 17 14 14 13 11 10 9 9 8 6 8 10 10 10 9 3 1 3 3 3 4 2 3 2 6 5 5 6 2 1 3 3 3 1 2 2 2 5 1 4 4 3 1 3 7 6 3 3 3 5 6 3
18 18 18 16 14 14 12 11 9 9 8 6 7 8 8 9 8 0 1 2 3 2 2 2 5 3 7 8 7 6 7 4 5 4 3 1 2 2 3 4 3 5 3 3 4 5 5 6 4 6 7 7 3 3
18 18 17 16 13 13 12 10 10 9 7 6 7 7 6 7 9 1 1 1 1 3 2 4 7 5 5 8 10 9 8 5 3 2 2 3 3 1 3 2 5 5 7 4 6 6 5 7 7 9 6 1 3 4
16 17 17 15 13 12 11 10 9 8 8 8 8 6 6 6 7 1 1 1 0 2 3 2 4 2 6 12 10 8 6 4 3 3 1 2 5 1 1 3 7 2 2 4 7 6 7 9 9 5 2 6 5 4
17 16 18 15 13 12 10 10 9 8 7 8 6 6 6 5 2 1 1 1 2 1 1 3 4 3 8 5 3 3 3 3 3 2 2 2 3 4 2 4 6 7 8 3 2 2 4 5 5 5 6 2 2 5
17 17 18 15 13 11 9 8 8 7 7 7 5 7 5 2 5 2 2 5 2 2 2 0 3 3 4 2 2 2 3 2 2 2 2 3 3 3 5 8 7 8 2 3 4 2 4 2 5 6 2 3 5 7
18 18 17 14 11 11 8 9 9 7 6 5 6 4 2 1 1 1 5 4 2 2 1 1 3 3 4 3 2 2 2 2 1 2 3 3 3 5 8 7 7 7 3 4 2 5 6 6 6 6 5 7 6 8
17 18 18 15 9 10 9 8 8 5 4 5 3 2 2 0 12 8 2 2 2 1 0 2 2 3 5 3 2 2 2 2 3 5 2 3 5 8 7 7 6 3 2 3 6 5 5 4 6 5 5 6 6 8
19 19 18 14 9 8 9 5 3 2 1 1 1 1 1 5 1 1 1 1 2 2 3 4 4 1 2 4 3 3 3 1 3 2 3 2 4 4 3 1 3 5 6 6 4 6 7 5 2 4 6 7 8 8
19 19 19 16 11 8 9 4 2 1 2 1 3 2 1 1 1 2 3 3 3 4 4 4 5 4 1 4 4 1 2 3 5 5 2 3 2 3 6 4 6 7 8 8 8 10 5 3 4 5 6 8 7 5
19 19 18 9 10 8 9 6 4 7 3 1 2 2 1 2 3 4 5 3 3 3 4 2 3 4 3 4 2 2 3 4 1 2 3 1 1 5 5 6 7 7 8 8 8 4 5 6 6 5 7 6 6 7
19 21 12 9 11 10 9 7 4 8 1 2 2 3 4 3 4 5 3 3 3 2 4 4 2 3 3 2 1 3 4 2 3 2 2 2 4 4 2 5 7 6 7 7 5 4 4 5 6 6 5 5 8 9
20 17 8 9 10 7 8 8 9 2 2 1 2 3 6 4 3 2 4 2 2 2 3 4 4 2 2 1 3 2 2 3 1 2 3 4 2 5 6 6 6 6 4 4 3 2 4 6 5 5 4 6 8 9
20 13 4 6 3 5 7 5 4 1 1 3 4 3 4 0 3 4 2 1 2 2 3 4 3 2 2 2 0 5 2 3 4 3 3 4 5 6 5 5 4 3 2 2 4 2 5 5 5 4 4 5 8 9
16 2 10 3 2 5 5 2 2 2 2 3 3 4 4 4 5 3 3 1 2 2 3 3 5 6 3 2 3 2 2 1 4 1 3 5 6 6 4 4 3 1 1 2 3 4 4 4 6 5 6 5 6 9
1 7 16 2 3 3 2 2 0 1 4 3 4 3 3 4 3 2 3 5 3 1 3 4 4 3 3 3 2 3 2 3 3 2 4 4 5 5 5 5 4 1 1 4 5 4 5 6 6 3 5 5 5 6
5 7 13 3 1 2 2 1 1 2 4 3 4 4 3 4 2 3 4 3 3 2 4 2 2 3 3 3 3 3 1 2 2 3 3 4 6 6 6 4 3 2 5 4 5 4 3 4 3 3 3 4 4 4
11 10 8 1 3 2 2 1 1 2 3 3 3 3 2 3 2 2 4 3 3 3 2 2 4 3 3 2 1 2 7 6 2 2 3 3 3 4 5 3 1 6 5 4 3 6 5 5 4 3 4 4 4 5
5 1 3 1 1 0 1 1 2 3 3 3 3 3 3 2 1 3 3 2 2 2 3 4 4 3 2 4 4 3 4 5 5 5 5 4 4 3 2 3 4 4 4 3 3 3 5 2 2 4 4 4 4 3
2 2 2 1 1 2 2 2 3 3 2 4 3 2 2 1 2 1 3 2 3 4 4 3 2 1 3 4 2 6 5 6 8 3 5 7 4 3 5 4 4 4 4 2 3 4 3 1 3 5 5 2 4 4
4 1 1 2 1 1 3 2 3 2 2 3 4 2 2 0 1 1 1 2 3 4 4 4 4 5 5 4 7 7 4 5 5 6 7 7 5 5 6 5 4 5 5 4 0 3 3 3 4 4 5 4 3 4
0 2 2 3 3 2 2 2 1 1 2 2 2 3 2 1 3 1 2 1 1 4 1 4 2 2 2 3 1 1 3 5 5 4 6 9 7 4 6 5 5 4 3 2 4 3 3 3 4 4 4 5 3 4
2 3 3 5 4 4 4 3 3 3 3 3 2 3 2 1 2 2 1 2 3 3 1 4 4 4 5 3 4 3 1 7 7 6 4 6 9 6 6 6 6 4 3 6 5 5 4 4 3 3 4 4 6 4
4 5 6 5 3 4 4 2 5 4 3 3 3 1 1 2 3 1 0 3 3 2 2 4 2 3 3 1 2 7 6 8 10 8 4 3 7 8 6 6 4 5 4 4 5 6 6 6 5 7 7 6 6 5
3 4 5 4 3 3 3 2 3 3 3 3 2 3 2 3 2 1 2 3 4 4 4 3 3 3 2 3 6 6 5 6 10 7 4 8 8 6 7 6 5 2 2 5 5 5 5 5 6 6 6 6 7 8
4 3 4 3 2 3 2 1 2 0 3 5 1 1 1 2 2 1 2 3 5 5 5 5 1 1 5 7 7 8 9 9 10 10 9 8 5 4 5 4 4 6 5 5 6 6 5 5 5 6 7 6 8 9
4 3 2 3 3 2 3 3 2 2 2 2 1 2 2 1 1 2 3 5 7 4 2 3 4 7 10 7 8 7 4 5 11 14 13 6 6 5 4 4 4 4 4 6 10 11 13 10 7 6 8 8 7 9
4 2 1 2 3 2 1 2 1 1 1 2 3 3 2 1 2 3 4 4 3 4 2 4 4 8 8 9 8 10 8 7 4 8 9 6 3 2 5 5 6 7 7 8 7 8 11 11 11 10 11 9 8 8
2 3 3 2 2 2 2 1 1 2 2 3 4 3 2 1 2 2 5 7 6 1 6 8 9 7 7 7 8 9 7 8 9 10 7 5 5 5 5 6 7 7 8 9 9 9 8 9 8 9 11 12 12 10
3 3 3 3 2 2 1 1 1 1 1 1 1 1 1 1 3 4 6 7 6 9 8 7 8 7 7 7 8 9 9 5 6 6 9 7 7 7 7 8 8 8 9 10 9 9 10 10 8 9 9 11 11 11
3 2 2 3 3 3 3 3 3 2 2 1 1 1 2 2 2 1 4 4 3 6 7 7 8 8 10 11 10 8 9 8 9 12 13 13 11 9 7 7 8 9 11 10 9 9 10 11 9 9 9 9 9 10
Wind_Direction
328 329 331 336 337 332 330 339 342 341 345 344 343 345 339 340 345 26 273 9 89 107 287 9 9 49 31 74 128 255 41 351 36 81 144 260 192 274 19 326 170 164 202 215 252 225 255 242 313 193 222 232 237 265
331 334 331 329 329 327 316 315 321 322 329 335 339 338 336 340 342 15 337 325 27 135 236 292 253 224 162 174 131 33 166 85 179 98 41 10 339 348 108 268 31 246 185 193 208 258 317 321 235 293 198 218 262 284
331 330 329 332 328 326 323 310 309 304 311 325 327 322 324 330 336 16 321 304 22 42 318 7 225 267 109 125 139 113 353 129 48 157 146 218 274 120 242 247 284 326 163 207 60 241 249 226 286 311 294 289 275 268
328 323 324 327 328 326 326 325 311 309 318 308 308 309 318 325 332 258 23 310 84 105 95 302 12 45 165 124 107 122 131 78 108 68 87 47 242 117 238 240 204 211 287 221 256 274 304 233 258 264 269 274 312 356
325 325 322 321 320 323 322 320 318 312 314 315 306 304 315 323 334 302 346 5 110 122 197 280 312 235 126 102 106 104 111 106 86 68 90 232 255 1 278 313 255 194 203 176 238 214 193 248 264 262 260 8 21 358
319 326 322 323 319 318 317 314 306 301 298 298 303 303 311 315 336 78 286 319 336 106 89 347 304 66 118 107 100 104 96 83 86 125 186 266 250 165 289 253 262 212 240 222 234 221 210 253 260 268 120 51 34 1
321 322 319 317 316 314 315 308 306 301 292 295 297 299 299 329 311 166 225 185 196 51 19 333 337 100 109 101 72 72 62 103 117 157 205 251 283 177 230 243 257 305 315 337 244 238 297 273 289 69 90 62 314 283
318 314 312 310 314 314 316 309 304 293 292 296 303 297 304 85 126 116 4 26 101 73 75 216 267 137 170 119 97 156 114 129 186 191 199 224 302 201 250 244 269 270 251 330 313 278 250 312 56 46 63 349 2 339
314 311 310 305 310 313 301 313 298 279 290 297 295 273 134 266 143 147 124 60 55 112 219 199 189 199 160 87 89 53 105 190 152 218 235 161 243 224 231 244 261 261 212 248 3 21 21 29 54 38 27 357 338 315
314 312 308 302 303 306 306 302 311 249 271 289 267 222 121 249 124 129 32 53 30 354 189 245 277 237 144 143 140 127 105 226 227 227 176 189 251 249 256 239 247 144 58 24 55 354 353 48 33 15 345 311 310 313
311 310 309 305 289 302 311 313 284 207 288 259 208 67 18 96 75 92 119 210 147 248 201 227 212 190 328 118 145 189 157 280 263 236 171 252 278 267 273 12 146 76 89 55 53 72 84 87 80 340 339 330 321 333
311 310 307 297 268 285 297 261 151 100 269 151 115 89 75 55 232 226 186 169 210 237 195 181 202 185 324 88 98 220 214 198 255 145 212 264 271 320 316 85 80 63 55 59 69 84 83 56 357 355 337 329 341 334
313 311 309 281 274 271 273 235 232 154 163 55 66 105 219 153 200 217 196 206 213 211 194 175 100 126 34 52 75 154 208 233 242 235 222 285 147 272 352 87 70 58 66 56 68 76 42 12 3 348 343 5 338 340
313 309 293 279 288 269 201 218 225 163 155 168 160 177 223 181 238 207 222 187 221 287 152 120 95 130 133 96 165 196 222 330 256 229 214 233 247 284 115 78 76 60 58 43 84 51 4 339 350 16 44 353 359 348
317 317 291 274 270 227 214 213 202 176 119 192 209 217 222 243 255 240 304 102 103 351 98 73 42 54 89 192 194 244 233 238 279 202 186 234 214 131 88 78 73 71 50 17 353 60 345 20 61 60 19 13 1 3
323 316 267 217 211 211 198 216 122 162 203 202 226 262 265 255 331 74 47 355 154 125 75 70 112 105 209 218 256 221 198 223 253 212 180 137 148 112 113 101 86 112 63 13 1 18 44 66 60 88 19 23 16 6
323 266 350 136 211 167 161 81 110 172 224 243 249 231 236 266 244 169 167 110 29 95 142 130 168 204 186 219 242 193 169 304 326 323 114 149 131 140 132 139 127 139 70 23 40 68 61 62 65 66 29 19 19 11
288 328 350 193 104 77 51 70 252 211 244 248 253 261 210 232 248 158 166 152 154 55 124 193 167 186 202 227 217 221 205 202 254 181 139 119 127 147 140 153 202 225 57 65 98 50 52 46 68 63 25 34 24 11
291 313 330 280 21 104 150 164 158 245 240 250 252 241 233 259 300 132 140 124 123 129 102 63 160 207 224 227 130 143 335 303 122 186 131 151 145 152 180 197 221 81 116 101 76 71 63 45 99 92 37 48 46 8
291 285 287 307 21 57 24 89 334 276 279 245 275 291 228 233 193 130 112 112 120 116 83 201 213 214 200 197 153 182 160 228 205 136 169 229 194 153 176 173 92 135 108 100 62 67 55 30 48 84 49 67 78 32
302 214 128 134 78 8 287 200 240 232 274 276 280 330 279 337 99 139 137 142 87 189 228 228 228 247 219 154 195 205 219 195 188 178 182 200 232 142 179 104 94 102 115 136 113 74 77 67 26 95 77 46 84 96
271 154 100 12 247 153 267 232 268 293 266 249 309 279 272 290 304 135 133 134 212 213 191 197 219 239 219 210 179 263 247 219 202 161 93 105 99 89 88 112 85 71 68 135 126 118 109 122 46 75 106 66 64 87
319 59 64 148 199 235 268 268 232 269 278 315 329 260 262 313 250 63 126 211 250 226 211 206 227 230 239 252 135 243 251 149 110 121 119 113 117 106 96 79 89 85 56 14 46 120 130 155 61 57 84 114 72 71
22 152 196 213 213 225 222 219 191 249 270 259 239 267 222 109 347 50 266 214 307 317 244 224 203 149 98 66 81 133 327 113 104 86 121 119 112 84 90 85 70 67 97 64 42 41 72 121 118 66 55 97 87 78
181 200 211 224 191 239 201 200 204 201 241 209 248 247 146 121 159 201 229 344 301 305 291 94 76 51 98 227 249 292 274 112 108 90 9 112 112 98 81 74 62 41 32 59 33 30 14 34 72 66 26 65 129 91
221 197 195 210 225 219 204 220 187 212 217 220 241 101 134 154 180 197 151 324 293 335 39 83 94 155 209 328 54 102 103 108 97 84 25 75 130 121 111 92 69 9 10 79 66 46 34 24 31 41 27 11 50 127
240 253 212 218 235 278 286 98 176 204 230 228 172 179 172 193 148 129 337 14 349 342 348 350 338 51 77 89 82 85 84 85 93 108 105 82 78 88 110 119 114 195 51 61 53 57 55 38 35 37 43 30 29 40
256 281 216 210 228 211 237 239 213 253 11 334 171 81 118 24 106 323 294 332 324 316 308 291 325 100 127 90 99 104 96 101 103 101 90 72 60 78 96 94 93 88 76 51 42 29 28 38 50 42 44 47 55 37
246 263 337 210 204 62 39 1 42 73 343 308 7 81 90 51 347 299 302 320 315 289 267 262 68 110 85 75 66 56 60 118 122 107 97 90 77 20 35 81 58 37 83 78 51 50 47 46 34 46 49 46 63 51
245 201 250 359 101 81 59 348 54 63 18 34 117 113 96 8 285 274 300 333 328 295 293 77 79 97 104 96 81 54 27 33 78 118 119 117 158 161 70 62 61 67 64 65 57 49 38 45 43 47 50 47 44 44
133 82 78 56 77 90 98 100 61 49 48 27 5 78 102 191 295 315 350 334 296 174 82 68 55 45 91 102 102 98 68 17 48 63 70 85 87 74 70 72 86 80 73 68 61 57 58 53 48 50 51 51 47 44
89 149 147 139 134 135 202 208 138 117 97 76 91 108 139 91 52 358 336 352 49 73 63 78 89 75 67 77 74 72 79 80 58 51 61 69 62 49 60 77 83 82 79 73 66 62 57 58 54 50 47 46 43 40
100 110 95 120 139 189 202 216 158 120 105 116 107 94 56 61 103 349 307 360 68 96 94 91 91 91 91 89 92 88 78 79 78 73 70 66 63 58 65 72 81 86 84 81 73 67 62 61 57 49 45 44 38 32